ALOS-4 (DAICHI-4)

Last updated on Sat Aug 15 2026 00:02:46 GMT+0000 (Coordinated Universal Time)

1 60182U 24123A 26226.59331139 -.00000057 00000+0 -79678-6 0 9997 2 60182 97.9221 322.9298 0001472 100.4366 259.7011 14.79467261114512
UTC large
Height (km)
Speed (km/s)
/
Latitude / Longitude
Inclination (degrees)
Orbital Period (minutes)
Azimuth
Elevation
Range (km)
Doppler Factor

Next 0 passes for location: London (51.5072 / 0.1276)

No passes found over London.
ALOS-4 (DAICHI-4)